Time,TemperatureF,DewpointF,PressureIn,WindDirection,WindDirectionDegrees,WindSpeedMPH,WindSpeedGustMPH,Humidity,HourlyPrecipIn,Conditions,Clouds,dailyrainin,SolarRadiationWatts/m^2,SoftwareType,DateUTC
2013-05-09 00:00:00,57.5,56.4,29.31,SW,229,0.0,0.0,96,0.00,,,0.00,0,Wunderground v.1.15,2013-05-09 04:00:00,
2013-05-09 00:06:00,57.5,56.4,29.31,SW,229,0.0,0.0,96,0.00,,,0.00,0,Wunderground v.1.15,2013-05-09 04:06:00,
2013-05-09 00:10:00,57.4,56.3,29.31,SW,229,0.0,0.0,96,0.00,,,0.00,0,Wunderground v.1.15,2013-05-09 04:10:00,
2013-05-09 00:15:00,57.4,56.3,29.31,SW,229,0.0,0.0,96,0.00,,,0.00,0,Wunderground v.1.15,2013-05-09 04:15:00,
2013-05-09 00:25:00,57.3,56.2,29.31,SW,215,0.0,4.0,96,0.00,,,0.00,0,Wunderground v.1.15,2013-05-09 04:25:00,
2013-05-09 00:35:00,57.2,56.1,29.30,SSW,211,1.0,1.0,96,0.00,,,0.00,0,Wunderground v.1.15,2013-05-09 04:35:00,
2013-05-09 00:45:00,57.1,56.0,29.30,SW,221,1.0,1.0,96,0.00,,,0.00,0,Wunderground v.1.15,2013-05-09 04:45:00,
2013-05-09 00:55:00,56.9,55.8,29.30,SW,221,0.0,0.0,96,0.00,,,0.00,0,Wunderground v.1.15,2013-05-09 04:55:00,
2013-05-09 01:06:00,56.9,55.8,29.30,SW,229,0.0,2.0,96,0.00,,,0.00,0,Wunderground v.1.15,2013-05-09 05:06:00,
2013-05-09 01:10:00,56.9,55.8,29.30,SW,234,0.0,0.0,96,0.00,,,0.00,0,Wunderground v.1.15,2013-05-09 05:10:00,
2013-05-09 01:20:00,56.6,55.5,29.30,WNW,292,2.0,2.0,96,0.00,,,0.00,0,Wunderground v.1.15,2013-05-09 05:20:00,
2013-05-09 01:30:00,56.5,55.4,29.30,WSW,254,1.0,1.0,96,0.00,,,0.00,0,Wunderground v.1.15,2013-05-09 05:30:00,
2013-05-09 01:40:00,56.4,55.3,29.30,SW,235,1.0,1.0,96,0.00,,,0.00,0,Wunderground v.1.15,2013-05-09 05:40:00,
2013-05-09 01:45:00,56.3,55.2,29.30,SW,234,1.0,1.0,96,0.00,,,0.00,0,Wunderground v.1.15,2013-05-09 05:45:00,
2013-05-09 01:55:00,56.1,55.0,29.29,SW,233,0.0,0.0,96,0.00,,,0.00,0,Wunderground v.1.15,2013-05-09 05:55:00,
2013-05-09 02:10:00,56.0,54.9,29.29,SW,233,0.0,0.0,96,0.00,,,0.00,0,Wunderground v.1.15,2013-05-09 06:10:00,
2013-05-09 02:20:00,56.0,54.9,29.28,SW,234,1.0,2.0,96,0.00,,,0.00,0,Wunderground v.1.15,2013-05-09 06:20:00,
2013-05-09 02:25:00,56.0,54.9,29.28,SW,234,1.0,2.0,96,0.00,,,0.00,0,Wunderground v.1.15,2013-05-09 06:25:00,
2013-05-09 02:35:00,55.8,54.7,29.28,SW,235,0.0,0.0,96,0.00,,,0.00,0,Wunderground v.1.15,2013-05-09 06:35:00,
2013-05-09 02:45:00,55.5,54.4,29.27,SW,234,0.0,0.0,96,0.00,,,0.00,0,Wunderground v.1.15,2013-05-09 06:45:00,
2013-05-09 02:55:00,55.3,54.2,29.27,SW,234,0.0,0.0,96,0.00,,,0.00,0,Wunderground v.1.15,2013-05-09 06:55:00,
2013-05-09 03:06:00,55.1,54.0,29.27,SW,234,0.0,0.0,96,0.00,,,0.00,0,Wunderground v.1.15,2013-05-09 07:06:00,
2013-05-09 03:15:00,55.0,53.9,29.26,SW,235,0.0,0.0,96,0.00,,,0.00,0,Wunderground v.1.15,2013-05-09 07:15:00,
2013-05-09 03:25:00,54.9,53.8,29.26,SW,235,0.0,0.0,96,0.00,,,0.00,0,Wunderground v.1.15,2013-05-09 07:25:00,
2013-05-09 03:35:00,54.9,53.8,29.26,SW,234,0.0,0.0,96,0.00,,,0.00,0,Wunderground v.1.15,2013-05-09 07:35:00,
2013-05-09 03:45:00,54.8,53.7,29.26,SW,234,0.0,0.0,96,0.00,,,0.00,0,Wunderground v.1.15,2013-05-09 07:45:00,
2013-05-09 03:50:00,54.7,53.6,29.26,SW,234,0.0,0.0,96,0.00,,,0.00,0,Wunderground v.1.15,2013-05-09 07:50:00,
2013-05-09 04:00:00,54.6,53.5,29.26,SW,235,0.0,0.0,96,0.00,,,0.00,0,Wunderground v.1.15,2013-05-09 08:00:00,
2013-05-09 04:10:00,54.5,53.4,29.26,SW,234,0.0,0.0,96,0.00,,,0.00,0,Wunderground v.1.15,2013-05-09 08:10:00,
2013-05-09 04:20:00,54.5,53.4,29.26,SW,234,0.0,0.0,96,0.00,,,0.00,0,Wunderground v.1.15,2013-05-09 08:20:00,
2013-05-09 04:30:00,54.3,53.2,29.26,SW,235,0.0,0.0,96,0.00,,,0.00,0,Wunderground v.1.15,2013-05-09 08:30:00,
2013-05-09 04:35:00,54.2,53.1,29.25,SW,234,0.0,0.0,96,0.00,,,0.00,0,Wunderground v.1.15,2013-05-09 08:35:00,
2013-05-09 04:45:00,54.0,52.9,29.25,SW,235,0.0,0.0,96,0.00,,,0.00,0,Wunderground v.1.15,2013-05-09 08:45:00,
2013-05-09 04:50:00,54.0,52.9,29.25,SW,234,0.0,0.0,96,0.00,,,0.00,0,Wunderground v.1.15,2013-05-09 08:50:00,
2013-05-09 05:00:00,54.0,52.9,29.25,SW,235,0.0,0.0,96,0.00,,,0.00,0,Wunderground v.1.15,2013-05-09 09:00:00,
2013-05-09 05:06:00,54.0,52.9,29.25,SW,235,0.0,0.0,96,0.00,,,0.00,0,Wunderground v.1.15,2013-05-09 09:06:00,
2013-05-09 05:15:00,53.7,52.6,29.25,SW,235,0.0,0.0,96,0.00,,,0.00,0,Wunderground v.1.15,2013-05-09 09:15:00,
2013-05-09 05:25:00,53.5,52.4,29.24,SW,235,0.0,0.0,96,0.00,,,0.00,0,Wunderground v.1.15,2013-05-09 09:25:00,
2013-05-09 05:30:00,53.4,52.3,29.25,SW,235,0.0,0.0,96,0.00,,,0.00,0,Wunderground v.1.15,2013-05-09 09:30:00,
2013-05-09 05:40:00,53.0,51.9,29.25,SW,235,0.0,0.0,96,0.00,,,0.00,0,Wunderground v.1.15,2013-05-09 09:40:00,
2013-05-09 05:45:00,53.1,52.0,29.25,SW,235,0.0,0.0,96,0.00,,,0.00,0,Wunderground v.1.15,2013-05-09 09:45:00,
2013-05-09 05:50:00,53.0,51.9,29.25,SW,235,0.0,0.0,96,0.00,,,0.00,0,Wunderground v.1.15,2013-05-09 09:50:00,
2013-05-09 06:00:00,52.9,51.8,29.26,SW,235,0.0,0.0,96,0.00,,,0.00,5,Wunderground v.1.15,2013-05-09 10:00:00,
2013-05-09 06:05:00,53.0,51.9,29.26,SW,235,0.0,0.0,96,0.00,,,0.00,9,Wunderground v.1.15,2013-05-09 10:05:00,
2013-05-09 06:15:00,53.2,52.4,29.26,SW,235,0.0,0.0,97,0.00,,,0.00,7,Wunderground v.1.15,2013-05-09 10:15:00,
2013-05-09 06:25:00,53.5,52.4,29.26,SW,235,0.0,0.0,96,0.00,,,0.00,7,Wunderground v.1.15,2013-05-09 10:25:00,
2013-05-09 06:30:00,53.6,52.5,29.26,SW,235,0.0,0.0,96,0.00,,,0.00,12,Wunderground v.1.15,2013-05-09 10:30:00,
2013-05-09 06:40:00,53.8,53.0,29.26,SW,234,0.0,0.0,97,0.00,,,0.00,28,Wunderground v.1.15,2013-05-09 10:40:00,
2013-05-09 06:45:00,53.9,53.1,29.26,SW,235,0.0,0.0,97,0.00,,,0.00,25,Wunderground v.1.15,2013-05-09 10:45:00,
2013-05-09 06:55:00,54.1,53.3,29.26,SW,235,0.0,0.0,97,0.00,,,0.00,69,Wunderground v.1.15,2013-05-09 10:55:00,
2013-05-09 07:00:00,54.3,53.5,29.26,SW,234,0.0,0.0,97,0.00,,,0.00,74,Wunderground v.1.15,2013-05-09 11:00:00,
2013-05-09 07:05:00,54.4,53.6,29.26,SW,234,0.0,0.0,97,0.00,,,0.00,63,Wunderground v.1.15,2013-05-09 11:05:00,
2013-05-09 07:10:00,54.5,53.7,29.26,SW,234,0.0,0.0,97,0.00,,,0.00,130,Wunderground v.1.15,2013-05-09 11:10:00,
2013-05-09 07:20:00,55.1,54.3,29.25,SW,234,0.0,0.0,97,0.00,,,0.00,111,Wunderground v.1.15,2013-05-09 11:20:00,
2013-05-09 07:25:00,54.9,54.1,29.25,SW,235,0.0,0.0,97,0.00,,,0.00,97,Wunderground v.1.15,2013-05-09 11:25:00,
2013-05-09 07:35:00,55.0,54.2,29.25,SW,234,0.0,0.0,97,0.00,,,0.00,116,Wunderground v.1.15,2013-05-09 11:35:00,
2013-05-09 07:45:00,55.4,54.6,29.25,SW,234,0.0,0.0,97,0.00,,,0.00,178,Wunderground v.1.15,2013-05-09 11:45:00,
2013-05-09 07:55:00,55.7,54.9,29.26,SW,235,0.0,0.0,97,0.00,,,0.00,142,Wunderground v.1.15,2013-05-09 11:55:00,
2013-05-09 08:10:00,55.5,54.7,29.26,ENE,67,1.0,1.0,97,0.00,,,0.00,97,Wunderground v.1.15,2013-05-09 12:10:00,
2013-05-09 08:15:00,55.5,54.7,29.26,ENE,67,1.0,1.0,97,0.00,,,0.00,128,Wunderground v.1.15,2013-05-09 12:15:00,
2013-05-09 08:25:00,56.2,55.4,29.27,SSW,202,0.0,0.0,97,0.00,,,0.00,107,Wunderground v.1.15,2013-05-09 12:25:00,
2013-05-09 08:35:00,55.9,55.1,29.27,SW,229,1.0,1.0,97,0.00,,,0.00,116,Wunderground v.1.15,2013-05-09 12:35:00,
2013-05-09 08:45:00,55.8,55.0,29.26,SW,226,0.0,1.0,97,0.00,,,0.00,109,Wunderground v.1.15,2013-05-09 12:45:00,
2013-05-09 08:55:00,56.2,55.4,29.26,SW,229,0.0,1.0,97,0.00,,,0.00,88,Wunderground v.1.15,2013-05-09 12:55:00,
2013-05-09 09:06:00,55.6,54.5,29.26,SW,230,1.0,3.0,96,0.00,,,0.00,63,Wunderground v.1.15,2013-05-09 13:06:00,
2013-05-09 09:15:00,55.8,54.7,29.26,SW,230,0.0,1.0,96,0.00,,,0.00,44,Wunderground v.1.15,2013-05-09 13:15:00,
2013-05-09 09:20:00,55.9,54.8,29.26,SW,230,0.0,0.0,96,0.00,,,0.00,46,Wunderground v.1.15,2013-05-09 13:20:00,
2013-05-09 09:30:00,55.8,54.7,29.26,SW,230,0.0,0.0,96,0.00,,,0.00,102,Wunderground v.1.15,2013-05-09 13:30:00,
2013-05-09 09:40:00,56.0,54.9,29.26,SW,230,0.0,0.0,96,0.00,,,0.00,134,Wunderground v.1.15,2013-05-09 13:40:00,
2013-05-09 09:50:00,56.2,55.1,29.26,SW,230,0.0,0.0,96,0.00,,,0.00,77,Wunderground v.1.15,2013-05-09 13:50:00,
2013-05-09 10:00:00,56.3,55.2,29.25,SW,230,0.0,0.0,96,0.00,,,0.00,93,Wunderground v.1.15,2013-05-09 14:00:00,
2013-05-09 10:06:00,56.2,55.1,29.25,SW,230,0.0,0.0,96,0.00,,,0.00,118,Wunderground v.1.15,2013-05-09 14:06:00,
2013-05-09 10:15:00,56.7,55.6,29.25,SW,230,0.0,0.0,96,0.00,,,0.00,148,Wunderground v.1.15,2013-05-09 14:15:00,
2013-05-09 10:25:00,56.9,55.5,29.25,SW,230,0.0,1.0,95,0.00,,,0.00,197,Wunderground v.1.15,2013-05-09 14:25:00,
2013-05-09 10:30:00,57.5,56.1,29.25,SW,230,0.0,0.0,95,0.00,,,0.00,165,Wunderground v.1.15,2013-05-09 14:30:00,
2013-05-09 10:40:00,57.7,55.7,29.25,SW,229,0.0,0.0,93,0.00,,,0.00,211,Wunderground v.1.15,2013-05-09 14:40:00,
2013-05-09 10:50:00,57.9,55.3,29.25,SW,236,1.0,1.0,91,0.00,,,0.00,181,Wunderground v.1.15,2013-05-09 14:50:00,
2013-05-09 11:00:00,58.4,55.5,29.25,West,268,0.0,0.0,90,0.00,,,0.00,209,Wunderground v.1.15,2013-05-09 15:00:00,
2013-05-09 11:10:00,58.4,55.2,29.25,SW,236,1.0,3.0,89,0.00,,,0.00,149,Wunderground v.1.15,2013-05-09 15:10:00,
2013-05-09 11:20:00,58.6,55.7,29.25,SW,221,1.0,1.0,90,0.00,,,0.00,206,Wunderground v.1.15,2013-05-09 15:20:00,
2013-05-09 11:25:00,59.0,56.4,29.24,SW,221,0.0,1.0,91,0.00,,,0.00,229,Wunderground v.1.15,2013-05-09 15:25:00,
2013-05-09 11:35:00,59.6,56.0,29.24,SW,226,0.0,0.0,88,0.00,,,0.00,309,Wunderground v.1.15,2013-05-09 15:35:00,
2013-05-09 11:45:00,59.8,55.6,29.25,SW,234,1.0,1.0,86,0.00,,,0.00,258,Wunderground v.1.15,2013-05-09 15:45:00,
2013-05-09 11:55:00,60.4,55.9,29.24,SW,234,1.0,2.0,85,0.00,,,0.00,274,Wunderground v.1.15,2013-05-09 15:55:00,
2013-05-09 12:10:00,60.7,55.5,29.24,WSW,254,1.0,1.0,83,0.00,,,0.00,336,Wunderground v.1.15,2013-05-09 16:10:00,
2013-05-09 12:20:00,61.1,55.9,29.24,SW,218,2.0,2.0,83,0.00,,,0.00,279,Wunderground v.1.15,2013-05-09 16:20:00,
2013-05-09 12:30:00,61.9,56.7,29.24,West,267,1.0,1.0,83,0.00,,,0.00,392,Wunderground v.1.15,2013-05-09 16:30:00,
2013-05-09 12:35:00,62.3,56.0,29.24,WSW,238,1.0,1.0,80,0.00,,,0.00,279,Wunderground v.1.15,2013-05-09 16:35:00,
2013-05-09 12:45:00,62.6,55.6,29.23,SW,219,1.0,1.0,78,0.00,,,0.00,299,Wunderground v.1.15,2013-05-09 16:45:00,
2013-05-09 12:50:00,62.3,55.4,29.23,SW,225,2.0,2.0,78,0.00,,,0.00,186,Wunderground v.1.15,2013-05-09 16:50:00,
2013-05-09 13:00:00,62.1,55.9,29.23,WSW,253,2.0,7.0,80,0.00,,,0.00,399,Wunderground v.1.15,2013-05-09 17:00:00,
2013-05-09 13:06:00,62.6,56.0,29.23,SSW,211,3.0,7.0,79,0.00,,,0.00,438,Wunderground v.1.15,2013-05-09 17:06:00,
2013-05-09 13:15:00,63.7,54.9,29.22,West,279,2.0,2.0,73,0.00,,,0.00,506,Wunderground v.1.15,2013-05-09 17:15:00,
2013-05-09 13:25:00,65.0,56.5,29.22,West,266,2.0,3.0,74,0.00,,,0.00,443,Wunderground v.1.15,2013-05-09 17:25:00,
2013-05-09 13:30:00,65.0,55.4,29.22,SW,221,2.0,4.0,71,0.00,,,0.00,436,Wunderground v.1.15,2013-05-09 17:30:00,
2013-05-09 13:40:00,64.9,56.8,29.21,NNW,341,2.0,2.0,75,0.00,,,0.00,369,Wunderground v.1.15,2013-05-09 17:40:00,
2013-05-09 13:50:00,66.6,57.7,29.21,SSW,206,2.0,4.0,73,0.00,,,0.00,1139,Wunderground v.1.15,2013-05-09 17:50:00,
2013-05-09 13:55:00,66.1,56.0,29.21,WSW,257,2.0,4.0,70,0.00,,,0.00,276,Wunderground v.1.15,2013-05-09 17:55:00,
2013-05-09 14:05:00,65.4,55.4,29.21,SW,226,1.0,2.0,70,0.00,,,0.00,257,Wunderground v.1.15,2013-05-09 18:05:00,
2013-05-09 14:15:00,64.7,55.8,29.20,North,9,2.0,2.0,73,0.00,,,0.00,374,Wunderground v.1.15,2013-05-09 18:15:00,
2013-05-09 14:20:00,65.1,55.5,29.20,SW,221,2.0,4.0,71,0.00,,,0.00,281,Wunderground v.1.15,2013-05-09 18:20:00,
2013-05-09 14:25:00,65.0,55.0,29.20,West,276,3.0,4.0,70,0.00,,,0.00,246,Wunderground v.1.15,2013-05-09 18:25:00,
2013-05-09 14:35:00,64.5,55.7,29.19,SW,227,2.0,3.0,73,0.00,,,0.00,292,Wunderground v.1.15,2013-05-09 18:35:00,
2013-05-09 14:40:00,64.2,55.4,29.19,WSW,247,3.0,4.0,73,0.00,,,0.00,202,Wunderground v.1.15,2013-05-09 18:40:00,
2013-05-09 14:50:00,64.1,55.3,29.19,West,261,2.0,2.0,73,0.00,,,0.00,209,Wunderground v.1.15,2013-05-09 18:50:00,
2013-05-09 15:00:00,64.5,56.0,29.19,SSW,210,2.0,4.0,74,0.00,,,0.00,267,Wunderground v.1.15,2013-05-09 19:00:00,
2013-05-09 15:06:00,64.4,54.8,29.18,SSW,208,2.0,5.0,71,0.00,,,0.00,318,Wunderground v.1.15,2013-05-09 19:06:00,
2013-05-09 15:15:00,64.7,55.8,29.18,SW,217,2.0,2.0,73,0.00,,,0.00,473,Wunderground v.1.15,2013-05-09 19:15:00,
2013-05-09 15:20:00,65.3,56.0,29.18,SW,234,2.0,5.0,72,0.00,,,0.00,526,Wunderground v.1.15,2013-05-09 19:20:00,
2013-05-09 15:30:00,65.9,55.8,29.17,WSW,242,1.0,1.0,70,0.00,,,0.00,169,Wunderground v.1.15,2013-05-09 19:30:00,
2013-05-09 15:35:00,65.9,57.0,29.17,West,268,1.0,1.0,73,0.00,,,0.00,160,Wunderground v.1.15,2013-05-09 19:35:00,
2013-05-09 15:45:00,65.2,54.8,29.17,SW,223,1.0,1.0,69,0.00,,,0.00,192,Wunderground v.1.15,2013-05-09 19:45:00,
2013-05-09 15:55:00,65.2,54.8,29.17,SW,223,1.0,3.0,69,0.00,,,0.00,192,Wunderground v.1.15,2013-05-09 19:55:00,
2013-05-09 16:06:00,65.0,55.4,29.17,WSW,243,1.0,1.0,71,0.00,,,0.00,95,Wunderground v.1.15,2013-05-09 20:06:00,
2013-05-09 16:15:00,64.5,55.3,29.17,WSW,252,1.0,1.0,72,0.00,,,0.00,149,Wunderground v.1.15,2013-05-09 20:15:00,
2013-05-09 16:20:00,64.4,54.8,29.17,SW,219,1.0,1.0,71,0.00,,,0.00,162,Wunderground v.1.15,2013-05-09 20:20:00,
2013-05-09 16:30:00,64.0,55.2,29.16,SW,215,1.0,1.0,73,0.00,,,0.00,128,Wunderground v.1.15,2013-05-09 20:30:00,
2013-05-09 16:40:00,63.9,55.1,29.17,NW,318,1.0,3.0,73,0.00,,,0.00,116,Wunderground v.1.15,2013-05-09 20:40:00,
2013-05-09 16:45:00,63.7,55.3,29.17,WSW,246,1.0,3.0,74,0.00,,,0.00,88,Wunderground v.1.15,2013-05-09 20:45:00,
2013-05-09 16:55:00,63.1,55.8,29.17,SSW,213,2.0,3.0,77,0.00,,,0.00,77,Wunderground v.1.15,2013-05-09 20:55:00,
2013-05-09 17:05:00,62.6,56.0,29.17,WSW,241,2.0,3.0,79,0.00,,,0.00,102,Wunderground v.1.15,2013-05-09 21:05:00,
2013-05-09 17:15:00,62.5,55.5,29.17,NNW,344,2.0,2.0,78,0.00,,,0.00,141,Wunderground v.1.15,2013-05-09 21:15:00,
2013-05-09 17:20:00,62.5,55.2,29.17,SW,231,2.0,2.0,77,0.00,,,0.00,148,Wunderground v.1.15,2013-05-09 21:20:00,
2013-05-09 17:30:00,62.5,54.8,29.17,SW,233,2.0,2.0,76,0.00,,,0.00,153,Wunderground v.1.15,2013-05-09 21:30:00,
2013-05-09 17:35:00,62.5,55.5,29.17,WSW,246,2.0,5.0,78,0.00,,,0.00,163,Wunderground v.1.15,2013-05-09 21:35:00,
2013-05-09 17:45:00,62.5,55.9,29.16,ENE,69,2.0,2.0,79,0.00,,,0.00,146,Wunderground v.1.15,2013-05-09 21:45:00,
2013-05-09 17:50:00,62.5,56.2,29.16,West,267,1.0,1.0,80,0.00,,,0.00,142,Wunderground v.1.15,2013-05-09 21:50:00,
2013-05-09 18:00:00,62.3,56.0,29.16,SW,227,2.0,2.0,80,0.00,,,0.00,100,Wunderground v.1.15,2013-05-09 22:00:00,
2013-05-09 18:06:00,62.2,56.3,29.16,West,265,1.0,4.0,81,0.00,,,0.00,84,Wunderground v.1.15,2013-05-09 22:06:00,
2013-05-09 18:15:00,62.0,56.4,29.16,SW,227,1.0,2.0,82,0.00,,,0.00,69,Wunderground v.1.15,2013-05-09 22:15:00,
2013-05-09 18:25:00,61.7,56.1,29.17,SW,220,1.0,3.0,82,0.00,,,0.00,70,Wunderground v.1.15,2013-05-09 22:25:00,
2013-05-09 18:30:00,61.6,56.4,29.17,NE,34,1.0,1.0,83,0.00,,,0.00,62,Wunderground v.1.15,2013-05-09 22:30:00,
2013-05-09 18:40:00,61.3,55.8,29.17,SW,223,1.0,1.0,82,0.00,,,0.00,42,Wunderground v.1.15,2013-05-09 22:40:00,
2013-05-09 18:50:00,60.9,55.7,29.17,West,277,1.0,1.0,83,0.00,,,0.00,35,Wunderground v.1.15,2013-05-09 22:50:00,
2013-05-09 19:00:00,60.6,55.7,29.17,SW,226,1.0,1.0,84,0.00,,,0.00,28,Wunderground v.1.15,2013-05-09 23:00:00,
2013-05-09 19:05:00,60.4,55.5,29.17,SW,225,0.0,1.0,84,0.00,,,0.00,23,Wunderground v.1.15,2013-05-09 23:05:00,
2013-05-09 19:15:00,60.2,55.3,29.18,West,279,0.0,1.0,84,0.00,,,0.00,11,Wunderground v.1.15,2013-05-09 23:15:00,
2013-05-09 19:25:00,60.1,55.6,29.18,West,279,0.0,0.0,85,0.00,,,0.00,5,Wunderground v.1.15,2013-05-09 23:25:00,
2013-05-09 19:30:00,60.0,55.8,29.18,West,279,0.0,0.0,86,0.00,,,0.00,0,Wunderground v.1.15,2013-05-09 23:30:00,
2013-05-09 19:40:00,59.7,56.1,29.18,WNW,300,0.0,0.0,88,0.00,,,0.01,0,Wunderground v.1.15,2013-05-09 23:40:00,
2013-05-09 19:45:00,59.6,56.0,29.19,WNW,300,0.0,0.0,88,0.06,,,0.02,0,Wunderground v.1.15,2013-05-09 23:45:00,
2013-05-09 19:55:00,59.0,56.1,29.19,NW,313,0.0,0.0,90,0.06,,,0.02,0,Wunderground v.1.15,2013-05-09 23:55:00,
2013-05-09 20:05:00,59.0,56.4,29.20,NNE,29,0.0,0.0,91,0.10,,,0.04,0,Wunderground v.1.15,2013-05-10 00:05:00,
2013-05-09 20:15:00,58.4,55.8,29.20,NE,36,0.0,0.0,91,0.09,,,0.06,0,Wunderground v.1.15,2013-05-10 00:15:00,
2013-05-09 20:20:00,58.2,55.9,29.20,NE,36,0.0,0.0,92,0.09,,,0.06,0,Wunderground v.1.15,2013-05-10 00:20:00,
2013-05-09 20:30:00,57.8,55.5,29.20,NE,44,0.0,0.0,92,0.14,,,0.08,0,Wunderground v.1.15,2013-05-10 00:30:00,
2013-05-09 20:40:00,57.6,55.6,29.20,ENE,59,0.0,0.0,93,0.17,,,0.11,0,Wunderground v.1.15,2013-05-10 00:40:00,
2013-05-09 20:50:00,57.5,55.5,29.20,ENE,63,0.0,0.0,93,0.52,,,0.16,0,Wunderground v.1.15,2013-05-10 00:50:00,
2013-05-09 21:00:00,57.3,55.6,29.20,ENE,63,0.0,0.0,94,0.62,,,0.24,0,Wunderground v.1.15,2013-05-10 01:00:00,
2013-05-09 21:06:00,57.2,55.5,29.21,ENE,63,0.0,0.0,94,0.25,,,0.27,0,Wunderground v.1.15,2013-05-10 01:06:00,
2013-05-09 21:15:00,56.9,55.2,29.21,ENE,63,0.0,0.0,94,0.18,,,0.31,0,Wunderground v.1.15,2013-05-10 01:15:00,
2013-05-09 21:25:00,56.6,54.9,29.21,ENE,63,0.0,0.0,94,0.08,,,0.33,0,Wunderground v.1.15,2013-05-10 01:25:00,
2013-05-09 21:35:00,56.2,54.5,29.21,ENE,63,1.0,1.0,94,0.05,,,0.33,0,Wunderground v.1.15,2013-05-10 01:35:00,
2013-05-09 21:45:00,56.3,54.9,29.21,ENE,63,1.0,1.0,95,0.00,,,0.33,0,Wunderground v.1.15,2013-05-10 01:45:00,
2013-05-09 21:50:00,56.3,54.9,29.21,ENE,63,1.0,1.0,95,0.00,,,0.33,0,Wunderground v.1.15,2013-05-10 01:50:00,
2013-05-09 22:00:00,55.9,54.2,29.21,ENE,63,0.0,0.0,94,0.00,,,0.33,0,Wunderground v.1.15,2013-05-10 02:00:00,
2013-05-09 22:05:00,55.7,54.3,29.21,ENE,63,0.0,0.0,95,0.00,,,0.33,0,Wunderground v.1.15,2013-05-10 02:05:00,
2013-05-09 22:15:00,55.5,54.1,29.21,ENE,63,0.0,0.0,95,0.00,,,0.33,0,Wunderground v.1.15,2013-05-10 02:15:00,
2013-05-09 22:20:00,55.4,54.0,29.21,ENE,63,0.0,0.0,95,0.00,,,0.33,0,Wunderground v.1.15,2013-05-10 02:20:00,
2013-05-09 22:30:00,55.0,53.6,29.21,ENE,63,0.0,0.0,95,0.00,,,0.33,0,Wunderground v.1.15,2013-05-10 02:30:00,
2013-05-09 22:35:00,55.0,53.6,29.20,ENE,63,0.0,0.0,95,0.00,,,0.33,0,Wunderground v.1.15,2013-05-10 02:35:00,
2013-05-09 22:40:00,55.1,53.7,29.20,ENE,63,0.0,0.0,95,0.00,,,0.33,0,Wunderground v.1.15,2013-05-10 02:40:00,
2013-05-09 22:45:00,54.9,53.5,29.20,ENE,63,0.0,0.0,95,0.00,,,0.33,0,Wunderground v.1.15,2013-05-10 02:45:00,
2013-05-09 22:55:00,54.6,53.2,29.19,ENE,63,0.0,0.0,95,0.00,,,0.33,0,Wunderground v.1.15,2013-05-10 02:55:00,
2013-05-09 23:00:00,54.5,53.1,29.20,ENE,63,0.0,0.0,95,0.00,,,0.33,0,Wunderground v.1.15,2013-05-10 03:00:00,
2013-05-09 23:06:00,54.3,52.9,29.20,ENE,63,0.0,0.0,95,0.00,,,0.33,0,Wunderground v.1.15,2013-05-10 03:06:00,
2013-05-09 23:15:00,54.2,52.8,29.20,ENE,63,0.0,0.0,95,0.00,,,0.33,0,Wunderground v.1.15,2013-05-10 03:15:00,
2013-05-09 23:25:00,54.4,53.0,29.20,ENE,63,0.0,0.0,95,0.00,,,0.33,0,Wunderground v.1.15,2013-05-10 03:25:00,
2013-05-09 23:35:00,54.6,53.5,29.20,ENE,63,0.0,0.0,96,0.00,,,0.33,0,Wunderground v.1.15,2013-05-10 03:35:00,
2013-05-09 23:45:00,54.5,53.1,29.21,ENE,63,0.0,0.0,95,0.00,,,0.33,0,Wunderground v.1.15,2013-05-10 03:45:00,
2013-05-09 23:50:00,54.5,53.1,29.21,ENE,63,0.0,0.0,95,0.00,,,0.33,0,Wunderground v.1.15,2013-05-10 03:50:00,